Regional Weather Roundup
Issued by NWS

Home | Current Version | Previous Version | Text Only | Print | Product List | Glossary Off
Versions: 1 2 3 4 5 6 7 8 9 10 11 12 13 14 15 16 17 18 19 20 21 22 23 24 25 26 27 28 29 30 31 32 33 34 35 36 37 38 39 40 41 42 43 44 45 46 47 48 49 50

545
ASUS44 KJAN 311410
RWRMS

MISSISSIPPI HOURLY WEATHER ROUNDUP
NATIONAL WEATHER SERVICE JACKSON MS
900 AM CDT FRI OCT 31 2014

NOTE: "FAIR: INDICATES FEW OR NO CLOUDS BELOW 12,000 FEET WITH NO
SIGNIFICANT WEATHER AND/OR OBSTRUCTIONS TO VISIBILITY.

MSZ001>002-007>008-010>013-018>021-025>028-034>036-311500-
NORTHWEST MISSISSIPPI

CITY           SKY/WX    TMP DP  RH WIND       PRES   REMARKS
CLARKSDALE     FAIR      54  48  82 N12G20    30.09R
CLEVELAND      FAIR      55  49  79 N14G21    30.08R
GREENWOOD      SUNNY     55  49  80 N8        30.06R
GREENVILLE     SUNNY     57  47  69 NW14      30.09R
GRENADA        FAIR      54  48  82 N10         N/A
OLIVE BRANCH   MOSUNNY   48  48 100 N14       30.08R
OXFORD         FAIR      50  48  93 NW10      30.07R
TUNICA         SUNNY     52  46  82 N18       30.10R
$$

MSZ003>006-009-014>017-022>024-029>033-037>039-311500-
NORTHEAST MISSISSIPPI

CITY           SKY/WX    TMP DP  RH WIND       PRES   REMARKS
COLUMBUS AFB   SUNNY     52  47  81 VRB1      30.01R
CORINTH        CLOUDY    48  48 100 N5        30.04R
GOLDN TRIANGLE SUNNY     54  46  76 CALM      29.99S
STARKVILLE     FAIR      52  46  82 NW3       30.01R
TUPELO         SUNNY     51  47  86 NE7       30.02R
$$

MSZ040-058-311500-
CENTRAL MISSISSIPPI

CITY           SKY/WX    TMP DP  RH WIND       PRES   REMARKS
JACKSON INTL   MOSUNNY   56  48  74 N7        30.06R
JACKSON HAWKNS SUNNY     54  47  77 NW8       30.06R
MERIDIAN KEY   MOSUNNY   49  44  83 CALM      30.02R
MERIDIAN NAS   PTSUNNY   51  44  77 W6        30.01R
RAYMOND        FAIR      54  48  82 NW7       30.07R
VICKSBURG      SUNNY     55  48  77 NW8       30.09R
$$

MSZ059>079-311500-
SOUTH MISSISSIPPI

CITY           SKY/WX    TMP DP  RH WIND       PRES   REMARKS
BROOKHAVEN     FAIR      55  48  76 NW7       30.07R
COLUMBIA         N/A     54  48  82 MISG      30.04R
HATTIESBURG    SUNNY     53  46  77 CALM      30.04S
MCCOMB         SUNNY     56  47  71 NW10      30.06R
NATCHEZ        SUNNY     55  48  76 N5        30.11R
PINE BELT      SUNNY     54  45  71 W5        30.04S
$$

MSZ080>082-311500-
COASTAL MISSISSIPPI

CITY           SKY/WX    TMP DP  RH WIND       PRES   REMARKS
BAY ST LOUIS   SUNNY     54  46  76 CALM      30.06R
BILOXI         SUNNY     59  46  63 N5        30.04S
PASCAGOULA     MOSUNNY   54  49  83 CALM      30.04S
GULFPORT       MOSUNNY   55  46  71 CALM      30.04S
$$



USA.gov is the U.S. government's official web portal to all federal, state and local government web resources and services.